Palmer, AK

1:47 PM AKDT on March 30, 2017 (GMT -0800)
Palmer Municipal

Weather History for PAAQ - April, 2013

Change the Weather History Date:

Saturday, April 13, 2013

  Actual Average Record
Temperature  
Mean Temperature 16 °F -  
Max Temperature 28 °F 42 °F 58 °F (1990)
Min Temperature 3 °F 25 °F 3 °F (2013)
Degree Days  
Heating Degree Days 50    
Moisture  
Dew Point 2 °F    
Average Humidity 53    
Maximum Humidity 73    
Minimum Humidity 36    
Precipitation  
Precipitation 0.00 in - - ()
Sea Level Pressure  
Sea Level Pressure 30.26 in    
Wind  
Wind Speed 3 mph (SSE)    
Max Wind Speed 8 mph    
Max Gust Speed -    
Visibility 10 miles    
Events      
Averages and records for this station are not official NWS values.
T = Trace of Precipitation, MM = Missing Value Source: NWS Daily Summary

Daily Weather History Graph

Daily Weather History Graph

Search for Another Location

Airport or City:

Trip Planner

Search our weather history database for the weather conditions in past years. The results will help you decide how hot, cold, wet, or windy it might be!

Date:

Astronomy

Apr. 13, 2013 Rise Set
Actual Time 6:39 AM AKDT 9:15 PM AKDT
Civil Twilight 5:50 AM AKDT 10:05 PM AKDT
Nautical Twilight 4:44 AM AKDT 11:11 PM AKDT
Astronomical Twilight 3:04 AM AKDT 12:59 AM AKDT
Moon 7:46 AM AKDT (4/13) 12:43 AM AKDT (4/13)
Length of Visible Light 16h 14m
Length of Day
14h 36m
Waxing Crescent, 11% of the Moon is Illuminated
Apr 13
Waxing Crescent
Apr 18
First Quarter
Apr 25
Full
May 2
Last Quarter
May 9
New

Hourly Weather History & Observations

Time (AKDT) Temp. Windchill Dew Point Humidity Pressure Visibility Wind Dir Wind Speed Gust Speed Precip Events Conditions
12:53 AM 12.0 °F 4.1 °F -0.0 °F 59% 30.11 in 10.0 mi SE 4.6 mph - N/A   Clear
1:53 AM 12.0 °F - -0.9 °F 56% 30.12 in 10.0 mi Calm Calm - N/A   Clear
2:53 AM 9.0 °F - -0.0 °F 67% 30.13 in 10.0 mi Calm Calm - N/A   Clear
3:53 AM 9.0 °F 2.4 °F -0.0 °F 67% 30.15 in 10.0 mi East 3.5 mph - N/A   Clear
4:53 AM 7.0 °F - -0.9 °F 70% 30.16 in 10.0 mi Calm Calm - N/A   Clear
5:53 AM 6.1 °F - -2.0 °F 69% 30.17 in 10.0 mi Calm Calm - N/A   Clear
6:53 AM 6.1 °F - -2.0 °F 69% 30.20 in 10.0 mi Calm Calm - N/A   Clear
7:53 AM 3.9 °F - -2.9 °F 73% 30.21 in 10.0 mi Calm Calm - N/A   Clear
8:53 AM 8.1 °F - -0.9 °F 67% 30.22 in 10.0 mi Calm Calm - N/A   Clear
9:53 AM 14.0 °F 6.5 °F -0.0 °F 54% 30.25 in 10.0 mi South 4.6 mph - N/A   Clear
10:53 AM 17.1 °F 7.6 °F 1.0 °F 50% 30.26 in 10.0 mi SSE 6.9 mph - N/A   Clear
11:53 AM 19.0 °F 10.0 °F 3.0 °F 50% 30.28 in 10.0 mi SSE 6.9 mph - N/A   Clear
12:53 PM 21.0 °F 12.4 °F 3.9 °F 48% 30.28 in 10.0 mi South 6.9 mph - N/A   Clear
1:53 PM 25.0 °F 20.7 °F 3.0 °F 39% 30.29 in 10.0 mi South 3.5 mph - N/A   Clear
2:53 PM 27.0 °F 19.5 °F 3.0 °F 36% 30.30 in 10.0 mi South 6.9 mph - N/A   Clear
3:53 PM 28.0 °F 20.8 °F 3.9 °F 36% 30.30 in 10.0 mi South 6.9 mph - N/A   Clear
4:53 PM 28.0 °F 20.8 °F 5.0 °F 38% 30.31 in 10.0 mi SSE 6.9 mph - N/A   Clear
5:53 PM 28.0 °F 20.0 °F 6.1 °F 39% 30.32 in 10.0 mi SE 8.1 mph - N/A   Clear
6:53 PM 26.1 °F 20.5 °F 7.0 °F 44% 30.33 in 10.0 mi SE 4.6 mph - N/A   Clear
7:53 PM 23.0 °F 17.0 °F 5.0 °F 46% 30.35 in 10.0 mi SE 4.6 mph - N/A   Scattered Clouds
8:53 PM 21.9 °F 15.7 °F 3.9 °F 46% 30.37 in 10.0 mi SE 4.6 mph - N/A   Scattered Clouds
9:53 PM 21.0 °F - 3.9 °F 48% 30.38 in 10.0 mi Calm Calm - N/A   Clear
10:53 PM 19.0 °F - 3.9 °F 52% 30.39 in 10.0 mi Calm Calm - N/A   Clear
11:53 PM 17.1 °F - 3.0 °F 54% 30.41 in 10.0 mi Calm Calm - N/A   Clear